Flag for Germany Weather past 2 weeks in Filderstadt, Baden-Württemberg, Germany

Now
38 °F

Scattered clouds.


Feels Like: 35 °F
Forecast: 33 / 40 °F
Wind: 3 mph from South

Location: Stuttgart-Echterdingen

Current Time: Mar 3, 2015 at 10:37:35 AM

Latest Report: Mar 3, 2015 at 9:00 AM


Visibility: 38 mi

Pressure: 30.26 "Hg

Humidity: 72%

Dew point: 29 °F

Location of FilderstadtLocation

Historic Weather in Filderstadt — Graph

°F

Filderstadt temperature yesterday

Maximum temperature yesterday: 47 °F (at 1:00 AM)
Minimum temperature yesterday: 37 °F (at 11:00 PM)
Average temperature yesterday: 42 °F

Past Weeks' High & Low Weather Summary

 TemperatureHumidityPressure
High55 °F (Feb 20, 3:00 PM)98% (Feb 17, 4:00 AM)30.78 "Hg (Feb 17, 4:00 AM)
Low24 °F (Feb 20, 5:00 AM)38% (Feb 20, 4:00 PM)29.55 "Hg (Feb 23, 5:00 PM)
Average36 °F79%30.06 "Hg
* Reported Feb 16 9:00 AM — Mar 3 9:00 AM, Filderstadt, Weather by CustomWeather, © 2015

Note: Actual official high and low records may vary slightly from our data, if they occured in-between our weather recording intervals... More about our weather records

Advertising

Filderstadt weather history for previous 24 hours

 ConditionsComfort  
Time TempWeatherWind HumidityBarometerVisibility
9:00 AM
Tue, Mar 3
38 °FScattered clouds.3 mph72%30.26 "Hg37 mi
8:00 AM35 °FPartly sunny.3 mph80%30.25 "Hg34 mi
7:00 AM35 °FOvercast.3 mph79%30.24 "Hg31 mi
6:00 AM35 °FOvercast.3 mph78%30.24 "Hg25 mi
5:00 AM35 °FPassing clouds.3 mph77%30.24 "Hg25 mi
3:00 AM35 °FPassing clouds.3 mph78%30.23 "Hg25 mi
2:00 AM36 °FPassing clouds.3 mph76%30.22 "Hg25 mi
1:00 AM36 °FPassing clouds.3 mph76%30.20 "Hg25 mi
12:00 AM37 °FPassing clouds.5 mph70%30.18 "Hg25 mi
11:00 PM
Mon, Mar 2
37 °FPassing clouds.9 mph69%30.14 "Hg28 mi
10:00 PM37 °FPassing clouds.9 mph72%30.10 "Hg31 mi
9:00 PM38 °FPassing clouds.7 mph79%30.05 "Hg31 mi
8:00 PM38 °FPassing clouds.7 mph79%30.01 "Hg25 mi
7:00 PM39 °FPassing clouds.9 mph79%29.97 "Hg25 mi
6:00 PM40 °FLow clouds.3 mph88%29.90 "Hg25 mi
5:00 PM41 °FScattered clouds.8 mph83%29.91 "Hg25 mi
4:00 PM38 °FSprinkles. Low clouds.7 mph88%29.90 "Hg25 mi
3:00 PM44 °FSprinkles. Overcast.8 mph73%29.86 "Hg31 mi
2:00 PM45 °FOvercast.9 mph64%29.83 "Hg31 mi
1:00 PM45 °FOvercast.10 mph64%29.82 "Hg31 mi
12:00 PM43 °FOvercast.9 mph78%29.81 "Hg12 mi
11:00 AM43 °FOvercast.N/A77%29.80 "Hg31 mi
10:00 AM42 °FPartly sunny.9 mph70%29.78 "Hg31 mi
Weather by CustomWeather, © 2015

See weather overviewHow to use our weather pages